Temperature
14 15 15 16 13 11 13 13 12 13 13 14 15 15 14 14 15 15 15 16 16 16 15 15 15 15 16 16 16 16 16 16 16 16 16 16 16 16 16 16 15 15 15 15 15 15 15 15 15
14 14 15 15 11 12 12 12 12 13 14 14 15 15 14 14 14 14 15 15 15 15 15 15 15 15 15 16 16 16 16 16 16 16 16 16 16 15 15 15 15 15 15 15 15 15 15 15 15
14 14 14 10 10 12 13 12 12 12 14 14 14 14 14 14 14 14 14 14 15 15 15 15 15 15 15 15 15 16 16 16 16 16 16 15 15 15 15 15 15 15 15 15 15 15 15 15 15
13 14 13 9 11 10 11 12 11 12 13 14 13 13 13 13 13 13 14 14 14 14 15 15 15 15 15 15 15 15 15 15 15 15 15 15 15 15 15 15 15 15 15 15 15 15 15 15 14
13 13 10 9 10 10 10 11 11 11 12 12 13 12 12 13 13 13 13 14 14 14 14 14 14 14 14 15 15 15 15 15 15 15 15 15 15 15 15 15 15 15 15 15 15 15 14 14 14
12 9 9 9 10 10 9 11 11 10 11 11 12 11 12 12 13 13 13 13 13 14 14 14 14 14 14 14 14 14 15 15 15 15 15 15 15 15 15 14 14 14 14 14 14 14 14 14 14
10 7 8 9 9 10 10 11 10 10 10 10 11 10 11 12 12 12 12 13 13 13 13 13 13 13 14 14 14 14 14 14 14 14 14 15 14 14 14 14 14 14 14 14 14 14 14 14 14
10 7 8 7 8 9 9 10 10 10 10 10 11 10 10 11 11 12 12 12 12 12 13 13 13 13 13 13 14 14 14 14 14 14 14 14 14 14 14 14 14 14 14 14 14 14 14 14 14
9 6 7 7 8 9 9 9 10 10 10 10 10 10 10 10 11 11 11 12 12 12 12 12 13 13 13 13 13 13 14 14 14 14 14 14 14 14 14 14 14 14 14 14 14 13 13 13 13
8 6 7 8 8 8 8 8 9 9 8 8 9 9 10 10 10 10 11 11 11 11 12 12 12 12 13 13 13 13 13 13 13 13 13 13 13 13 13 13 13 13 13 13 13 13 13 13 13
6 6 6 7 8 8 8 8 8 8 7 8 8 8 9 9 9 10 10 10 10 11 11 11 12 12 12 12 12 12 13 13 13 13 13 13 13 13 13 13 13 13 13 13 13 13 13 13 13
5 5 6 6 7 7 7 7 7 7 8 8 8 8 8 8 9 9 9 9 10 10 10 11 11 11 12 12 12 12 12 12 12 12 12 13 13 13 13 13 13 13 13 13 13 13 13 12 12
4 5 6 6 6 6 6 6 6 7 8 8 8 8 8 8 8 8 8 9 9 9 10 10 10 11 11 11 12 12 12 12 12 12 12 12 12 12 12 12 13 13 13 13 13 13 12 12 12
4 4 5 5 6 6 5 5 6 6 7 7 7 7 7 7 7 8 8 8 8 9 9 9 10 10 11 11 11 11 12 12 12 12 12 12 12 12 12 12 12 12 12 12 12 12 12 12 12
5 4 4 4 5 5 5 5 5 6 6 6 6 6 7 7 7 7 7 7 8 8 8 9 9 9 10 10 10 11 11 11 11 11 11 11 11 12 12 12 12 12 12 12 12 12 12 12 11
4 3 3 4 4 5 5 4 5 6 6 5 6 6 6 6 6 6 7 7 7 7 8 8 8 9 9 10 10 10 11 11 11 11 11 11 11 11 11 11 12 12 12 11 11 11 11 11 11
2 2 3 3 4 4 4 4 4 5 5 5 5 5 5 5 6 6 6 6 7 7 7 7 8 8 8 9 9 9 10 10 10 10 11 11 11 11 11 11 11 11 11 11 11 11 11 11 11
2 2 2 3 3 3 3 3 4 4 4 4 4 5 5 5 5 5 6 6 6 6 6 7 7 8 8 8 8 9 9 10 10 10 10 10 10 11 11 11 11 11 11 11 11 10 10 11 10
2 2 2 2 3 2 2 2 3 3 3 3 3 4 4 4 5 5 5 6 6 6 6 6 7 7 7 8 8 8 9 9 9 9 10 10 10 10 10 10 10 10 10 10 10 10 10 10 10
2 1 1 2 3 3 1 2 2 2 2 3 3 3 3 4 4 4 5 5 5 5 6 6 6 6 7 7 7 8 8 8 9 9 9 9 9 10 10 10 10 10 10 10 10 10 10 10 10
2 1 1 1 2 2 1 2 2 2 2 3 3 3 3 3 3 3 4 4 5 5 5 5 6 6 6 6 7 7 7 7 8 8 9 9 9 9 9 10 10 10 10 10 10 10 9 9 9
1 1 1 1 1 0 1 1 2 1 1 1 1 2 2 2 2 3 3 4 4 4 5 5 5 5 6 6 6 6 7 7 7 8 8 8 8 9 9 9 9 9 9 9 9 9 9 9 9
0 1 1 1 0 -1 -0 -0 1 1 1 1 0 1 1 2 2 2 2 3 3 4 4 4 5 5 5 5 6 6 6 7 7 7 7 8 8 8 8 8 9 9 9 9 9 9 9 9 9
0 0 0 -1 -1 -0 -0 -0 0 -1 -0 0 -0 0 1 1 1 2 2 2 3 3 4 4 5 5 5 5 5 6 6 6 6 7 7 7 7 8 8 8 8 8 8 8 9 8 8 8 8
-1 -1 -1 -0 -1 -0 -0 -0 -1 -1 -1 -1 -1 -0 0 1 1 1 1 2 2 3 3 3 4 4 4 5 5 5 6 6 6 6 7 7 7 7 7 7 7 8 8 8 8 8 8 8 8
-2 -1 -1 0 -0 -1 -1 -1 -1 -1 -1 -1 -1 -1 -0 -0 0 0 1 1 2 2 2 3 3 4 4 4 5 5 5 5 6 6 6 6 6 7 7 7 7 7 7 8 8 8 8 8 8
-2 -2 -2 -2 -3 -2 -2 -3 -2 -2 -2 -2 -2 -2 -1 -1 -0 0 0 1 1 2 2 2 3 3 4 4 4 5 5 5 5 6 6 6 6 6 6 6 7 7 7 7 7 7 7 7 7
-2 -3 -3 -2 -2 -1 -2 -2 -2 -2 -2 -3 -3 -3 -2 -2 -1 -1 0 0 1 1 2 2 2 3 3 3 4 4 4 5 5 5 5 6 6 6 6 6 6 6 7 7 7 7 7 7 7
-3 -3 -4 -4 -3 -2 -2 -1 -3 -3 -3 -4 -3 -3 -3 -2 -2 -1 -0 0 1 1 1 2 2 2 2 3 3 4 4 4 5 5 5 5 5 5 5 6 6 6 6 7 7 7 7 7 7
-4 -4 -4 -3 -3 -4 -4 -2 -3 -4 -4 -4 -4 -3 -3 -2 -2 -2 -1 -0 0 1 1 1 1 2 2 2 2 3 3 4 4 4 4 5 5 5 5 5 5 6 6 6 6 6 6 6 6
Wind_Speed
11 7 2 4 5 3 4 4 2 2 2 1 1 3 5 4 4 2 2 3 3 4 7 9 10 11 12 13 13 13 14 14 15 15 15 15 15 15 15 15 15 15 16 16 17 17 17 17 18
6 3 4 5 4 3 6 4 3 4 3 0 2 2 3 1 1 2 2 2 3 5 7 9 10 11 11 12 13 13 14 14 14 14 15 14 14 14 15 15 15 15 15 16 16 16 17 17 18
3 4 4 4 4 8 6 3 5 3 2 1 1 2 2 0 1 0 2 1 3 4 7 9 10 10 11 11 12 13 13 13 14 14 14 14 14 14 14 14 14 14 15 15 16 16 16 17 17
3 4 4 3 6 6 4 2 2 2 2 2 2 1 1 3 1 2 1 3 4 4 6 8 10 10 11 11 12 12 12 13 13 13 13 13 13 13 14 13 14 14 14 15 15 16 16 16 17
4 4 3 2 6 4 3 3 1 0 0 1 2 1 0 3 5 5 3 4 5 4 5 7 9 9 9 10 11 12 12 12 13 13 13 13 13 13 13 13 14 14 14 14 15 15 15 16 16
3 3 3 6 7 3 2 2 0 1 0 1 2 1 1 3 7 5 3 3 4 4 4 6 8 8 8 8 9 11 11 12 12 12 12 12 13 13 13 13 13 13 14 14 14 15 15 16 16
3 3 4 5 4 3 2 1 1 1 0 1 0 2 1 3 5 4 3 3 4 4 4 4 5 6 7 7 8 9 11 11 11 11 12 12 12 12 13 13 13 13 14 14 15 14 15 16 16
3 4 2 3 4 4 2 1 0 1 1 1 2 3 1 3 3 4 4 4 4 4 4 4 4 5 5 6 7 7 9 10 11 11 11 11 12 12 12 12 13 13 13 14 14 14 15 16 16
3 2 5 5 5 3 0 1 2 1 2 1 2 1 1 1 2 4 4 4 3 3 3 3 4 4 4 5 6 7 7 9 10 10 11 11 10 10 10 11 12 12 12 14 14 14 15 15 15
3 4 7 3 2 2 1 1 1 2 2 2 3 4 2 3 3 4 3 2 1 1 1 2 2 3 3 4 4 5 5 7 8 9 10 10 9 9 9 11 12 11 12 13 14 14 14 13 13
2 4 3 3 2 1 1 1 1 2 2 3 3 1 1 2 2 3 2 2 2 2 0 0 1 2 2 3 3 3 4 5 7 8 9 9 9 8 8 9 9 10 10 11 12 12 11 11 11
1 2 3 3 3 3 2 1 1 4 5 2 3 4 4 2 2 3 3 2 1 1 2 0 1 1 2 2 2 3 3 4 5 6 8 8 6 6 6 6 7 8 8 9 10 9 10 11 11
1 3 3 4 4 4 2 3 3 4 4 2 1 3 4 4 3 3 2 2 1 2 2 1 1 0 1 1 2 2 2 3 5 7 7 8 6 5 5 5 6 7 8 8 8 9 9 9 9
1 2 4 4 4 4 3 5 2 5 2 0 2 3 4 5 4 3 2 2 2 2 2 2 1 1 1 1 1 1 2 3 4 6 7 8 7 6 5 5 5 6 8 8 8 9 8 7 8
1 2 4 4 3 2 1 5 5 5 1 1 2 3 4 4 4 4 4 3 3 3 2 2 3 1 1 1 1 2 2 3 3 5 8 8 8 8 6 5 5 6 8 9 8 8 8 6 6
2 1 3 4 2 2 1 8 6 3 2 3 3 3 4 4 4 4 3 3 3 3 3 3 2 2 2 2 2 2 2 3 3 5 7 8 9 9 7 5 4 7 8 8 6 5 5 5 5
2 1 3 5 1 1 2 8 7 2 2 4 4 4 4 4 4 4 3 3 2 3 3 3 2 2 3 2 2 2 3 2 2 3 5 7 9 9 8 5 5 8 7 6 5 4 5 5 5
2 2 4 5 3 1 5 9 8 5 4 4 4 3 4 5 5 4 3 3 2 2 2 3 3 2 2 2 2 2 2 2 2 2 4 6 8 9 8 6 6 8 6 4 5 5 4 5 5
2 3 5 7 4 3 7 10 11 6 3 3 3 3 3 5 5 4 3 2 2 2 2 3 3 2 2 2 3 3 3 2 1 2 4 5 6 7 7 6 6 6 6 6 6 5 5 4 4
2 3 4 6 3 3 6 11 9 4 2 2 3 3 3 4 4 4 3 2 2 3 3 3 4 3 3 3 3 3 3 2 2 1 2 4 5 6 6 7 5 6 6 7 7 6 4 3 3
3 4 4 6 5 2 3 6 4 3 2 2 2 2 3 3 4 3 2 2 2 2 3 3 4 3 3 2 1 1 2 1 1 1 1 2 4 5 5 6 5 5 6 7 7 7 5 5 3
5 4 5 5 2 3 0 4 6 3 3 3 3 3 4 4 4 3 2 3 3 3 3 3 3 3 3 3 4 3 4 3 2 2 2 2 4 4 4 4 6 5 5 7 7 6 5 6 6
4 4 3 3 2 3 1 3 7 2 4 4 4 4 4 4 3 3 3 3 3 3 2 3 2 3 3 4 4 4 4 3 2 2 3 2 3 4 4 4 4 5 5 6 7 6 6 5 5
2 2 1 1 1 3 4 4 6 3 4 5 4 4 5 5 5 4 4 3 3 3 2 2 2 3 3 4 4 5 5 4 4 3 3 3 2 2 3 4 3 4 4 5 6 7 8 6 5
4 4 4 4 2 5 2 3 6 4 3 3 4 5 5 5 5 5 5 4 4 3 3 3 3 4 3 3 4 5 5 6 6 5 5 4 3 3 3 3 3 3 3 5 6 6 6 6 7
1 3 4 3 4 5 2 5 5 3 3 3 3 4 6 6 5 6 6 5 4 3 4 3 3 4 4 4 4 4 5 4 4 5 5 5 4 4 4 4 4 4 4 4 6 5 5 5 7
1 1 3 3 1 3 5 5 6 3 5 6 6 6 7 7 7 7 7 6 5 4 4 4 4 3 4 4 4 4 5 5 4 4 4 4 3 3 4 4 4 4 4 4 5 5 5 4 5
1 3 2 2 1 4 5 4 4 5 6 7 7 8 8 8 7 7 7 7 6 4 4 3 3 3 3 3 3 3 4 5 4 4 5 4 4 4 4 4 4 4 4 4 4 4 4 5 5
1 1 1 2 2 3 4 6 3 4 4 5 7 8 8 8 7 7 7 6 5 5 4 4 3 3 3 3 3 2 3 4 4 4 5 5 4 5 5 5 5 5 4 4 4 4 4 6 6
2 2 3 2 3 3 3 7 3 2 3 5 7 8 7 7 6 6 6 6 5 5 5 4 4 3 3 3 2 3 3 3 4 4 4 4 4 4 5 5 5 5 5 4 5 5 5 7 7
Wind_Direction
336 344 41 54 60 60 228 241 235 267 255 255 201 149 150 153 159 180 355 88 94 133 145 145 137 133 134 134 130 127 125 123 122 121 119 119 121 122 121 119 116 113 113 111 109 108 106 104 102
334 354 50 64 113 199 246 236 232 232 220 352 30 87 104 167 33 48 26 13 95 127 134 140 137 133 130 135 135 131 129 126 124 123 122 119 120 122 120 119 118 115 113 112 110 109 108 106 105
347 32 81 92 153 197 217 230 229 267 275 41 41 54 123 154 29 20 323 82 92 116 131 136 135 135 131 131 135 134 132 130 128 126 124 122 119 119 121 118 117 115 115 113 113 111 111 110 108
51 46 59 104 211 219 216 259 235 304 350 27 90 64 41 52 25 334 43 96 106 105 127 138 134 133 132 131 135 134 136 134 132 129 127 125 124 120 119 120 118 116 115 116 115 114 114 114 111
50 85 94 223 232 234 242 285 231 141 257 13 83 127 329 26 25 38 86 103 112 108 115 138 138 134 130 133 135 138 135 136 136 134 131 130 126 124 120 119 120 118 117 118 118 116 117 117 113
55 82 148 222 233 245 272 285 121 61 11 30 82 117 204 28 28 31 55 88 87 96 97 125 139 137 134 133 137 139 140 137 135 136 134 132 129 126 125 121 122 122 121 120 121 120 118 119 115
115 125 188 213 235 242 265 292 150 176 109 266 170 136 297 3 8 28 49 76 69 72 70 86 111 129 134 135 135 136 139 136 135 132 133 131 129 129 129 127 124 124 123 122 121 121 120 119 116
121 123 174 213 221 240 271 316 267 123 225 326 98 129 249 306 358 44 61 75 76 63 55 51 81 98 116 130 131 126 132 135 133 130 126 128 130 129 129 129 126 123 124 124 122 120 121 120 117
82 116 208 213 212 243 346 37 332 27 89 30 28 64 286 107 82 68 62 54 61 66 52 40 47 69 91 113 128 125 129 134 134 130 125 122 123 126 127 127 127 123 125 127 125 120 119 118 115
89 188 217 212 207 224 248 170 297 42 26 350 356 6 46 109 116 107 96 97 88 61 63 58 43 49 79 102 113 125 130 135 133 131 128 124 122 124 125 127 126 123 126 128 125 120 116 113 111
120 200 230 278 295 279 254 202 135 142 245 236 243 263 115 119 135 145 164 177 191 199 226 72 57 56 84 93 107 119 130 130 131 133 130 126 121 120 118 117 121 121 122 122 122 117 112 113 113
141 276 260 285 324 306 274 251 218 200 230 251 212 178 167 169 199 194 191 211 211 230 215 254 12 62 84 102 123 123 128 134 133 141 136 131 122 119 121 118 120 123 122 120 119 114 112 110 114
237 269 285 277 300 302 300 264 234 250 261 288 214 170 181 192 215 221 198 205 211 219 223 212 335 134 109 118 131 130 127 146 148 148 148 143 133 133 129 127 126 126 128 126 122 119 116 112 111
230 275 303 302 287 286 272 278 247 255 255 138 180 201 201 202 212 220 221 214 222 225 230 213 210 222 163 156 167 150 157 155 157 154 156 153 147 141 137 135 131 131 136 133 130 129 123 117 115
246 315 321 311 280 267 287 290 238 240 192 209 229 233 223 215 216 216 222 223 216 216 221 226 204 221 201 182 181 155 157 157 155 165 164 161 156 152 144 143 142 139 140 134 124 121 116 115 113
30 21 307 302 286 286 175 260 255 219 174 233 251 250 241 239 228 227 222 233 232 218 213 224 225 212 207 196 175 149 147 153 161 173 171 168 166 161 151 147 153 148 141 137 131 135 128 123 121
29 295 270 297 282 276 207 255 275 256 206 240 247 250 246 251 255 253 240 229 225 229 216 210 215 220 209 199 174 153 145 144 153 166 170 172 171 169 160 154 153 150 140 140 145 143 142 138 130
247 248 265 273 294 259 247 260 282 275 233 240 247 251 253 251 258 263 261 249 228 229 223 213 214 229 213 182 167 147 137 130 136 165 173 170 170 169 163 158 158 154 148 153 153 148 138 139 135
220 232 264 270 280 257 249 267 278 281 256 248 258 269 272 266 273 279 277 257 239 241 233 214 213 227 215 192 191 187 191 191 184 172 177 169 170 166 164 164 162 161 165 166 159 148 142 135 130
232 270 279 288 282 256 266 275 278 267 238 227 231 261 280 295 307 305 305 285 252 244 243 225 214 217 221 216 220 205 190 188 190 166 163 169 162 168 168 165 172 169 166 161 162 154 157 153 151
253 228 257 282 315 300 287 288 274 258 249 294 289 292 311 308 306 304 305 290 276 265 250 240 232 231 230 212 196 184 143 149 176 190 187 169 163 167 169 172 169 171 172 174 173 170 163 168 166
260 246 266 277 301 290 97 280 276 264 278 300 320 329 319 320 316 306 306 304 292 276 263 246 235 235 234 201 188 183 185 191 211 206 197 176 163 168 168 169 178 173 177 178 179 177 172 167 172
252 291 270 259 237 287 256 220 280 303 274 291 302 304 312 313 309 298 288 282 291 289 275 256 240 243 229 205 196 196 197 191 185 186 182 191 170 162 168 176 180 178 180 185 178 175 173 176 176
281 342 347 60 101 259 229 197 275 262 260 293 301 307 318 321 318 309 299 305 309 317 311 281 254 267 243 206 197 203 199 188 177 183 191 201 188 176 174 180 181 185 185 189 185 182 180 184 181
38 64 14 349 322 253 210 213 253 265 262 273 295 309 325 333 336 328 321 312 309 317 308 283 265 268 254 223 210 211 203 194 190 193 195 197 197 203 200 192 188 189 192 189 185 180 185 188 187
348 129 156 232 249 290 283 235 254 281 308 320 325 330 337 338 335 333 329 317 304 301 297 283 264 265 251 232 225 221 205 201 203 196 197 203 205 205 205 199 190 189 187 188 187 185 187 191 190
114 173 175 155 264 274 268 286 300 320 338 345 342 341 333 329 330 331 333 329 319 304 290 274 256 257 252 243 230 228 208 198 203 200 200 207 208 203 200 199 194 190 187 188 185 195 193 193 193
134 155 103 137 229 272 289 278 271 308 320 331 333 327 322 327 332 335 331 325 318 305 301 308 279 258 258 252 236 235 213 202 200 195 201 205 213 202 200 201 198 196 193 191 188 194 194 197 201
56 93 113 148 182 202 271 276 242 256 292 308 314 319 318 320 323 322 320 320 325 332 329 325 312 285 278 266 257 257 222 207 196 201 207 207 213 203 204 204 198 196 194 192 197 199 198 203 196
163 176 154 183 249 208 227 269 280 265 297 307 314 320 317 316 320 321 323 333 343 342 333 326 319 301 283 279 277 260 229 206 204 209 215 210 209 207 206 202 196 198 197 193 199 201 210 203 197
Height
1499 1500 1502 1505 1509 1520 1519 1515 1512 1510 1508 1507 1506 1506 1508 1510 1513 1517 1511 1509 1511 1513 1516 1518 1521 1523 1525 1527 1529 1530 1532 1533 1535 1536 1538 1539 1540 1541 1543 1544 1545 1546 1547 1548 1549 1550 1551 1552 1553
1499 1501 1504 1504 1514 1522 1518 1512 1511 1507 1506 1505 1505 1506 1507 1508 1510 1510 1508 1509 1511 1513 1516 1518 1521 1523 1525 1527 1529 1531 1532 1534 1535 1537 1538 1539 1541 1542 1543 1545 1546 1547 1548 1549 1550 1551 1552 1553 1554
1500 1501 1503 1507 1515 1516 1511 1508 1507 1505 1505 1505 1505 1506 1507 1509 1509 1509 1509 1510 1512 1514 1516 1518 1521 1523 1525 1527 1529 1531 1532 1534 1535 1537 1538 1540 1541 1543 1544 1546 1547 1548 1549 1550 1551 1552 1553 1554 1555
1500 1502 1503 1510 1511 1510 1508 1506 1505 1505 1504 1505 1506 1507 1508 1510 1510 1510 1510 1510 1512 1514 1516 1518 1520 1523 1525 1527 1529 1530 1532 1534 1535 1537 1539 1540 1541 1543 1545 1546 1548 1549 1550 1551 1552 1553 1554 1555 1556
1499 1501 1507 1513 1510 1507 1506 1505 1504 1504 1505 1505 1506 1507 1508 1509 1509 1509 1510 1511 1512 1514 1516 1518 1520 1522 1524 1526 1528 1530 1532 1534 1535 1537 1539 1540 1542 1543 1545 1546 1548 1549 1551 1552 1553 1554 1555 1557 1558
1499 1501 1511 1511 1507 1506 1505 1504 1504 1504 1505 1505 1505 1506 1507 1508 1507 1508 1510 1511 1513 1514 1516 1518 1520 1522 1524 1526 1528 1529 1531 1533 1535 1536 1538 1540 1542 1543 1545 1547 1548 1550 1551 1553 1554 1555 1556 1557 1559
1500 1504 1509 1508 1507 1506 1504 1503 1504 1504 1505 1505 1505 1506 1506 1507 1507 1508 1510 1512 1513 1515 1516 1518 1519 1521 1523 1525 1527 1529 1531 1533 1534 1536 1538 1539 1541 1543 1545 1547 1548 1550 1551 1553 1554 1556 1557 1558 1559
1499 1504 1508 1509 1507 1505 1503 1503 1503 1504 1505 1506 1506 1506 1506 1506 1507 1508 1509 1511 1513 1515 1516 1518 1519 1520 1522 1524 1526 1528 1530 1532 1534 1536 1537 1539 1541 1543 1545 1546 1548 1550 1552 1553 1555 1556 1558 1559 1560
1499 1507 1508 1506 1505 1504 1502 1502 1503 1504 1504 1505 1505 1506 1506 1506 1506 1507 1508 1510 1512 1514 1515 1517 1518 1519 1521 1523 1525 1527 1529 1531 1533 1535 1536 1538 1540 1542 1544 1546 1548 1550 1551 1553 1555 1556 1558 1559 1561
1500 1506 1503 1502 1503 1502 1502 1502 1503 1503 1504 1504 1504 1504 1505 1505 1505 1505 1506 1507 1509 1511 1514 1515 1517 1518 1520 1522 1524 1526 1528 1530 1532 1534 1535 1537 1539 1541 1543 1545 1547 1549 1551 1553 1554 1556 1558 1559 1561
1501 1503 1502 1502 1502 1502 1501 1502 1502 1503 1504 1503 1502 1502 1503 1503 1504 1504 1505 1506 1508 1510 1512 1514 1515 1517 1518 1520 1522 1524 1526 1528 1530 1532 1534 1536 1538 1540 1542 1544 1546 1548 1550 1552 1554 1556 1557 1559 1561
1502 1502 1502 1502 1502 1502 1501 1501 1502 1501 1501 1501 1502 1502 1502 1502 1502 1503 1503 1505 1507 1508 1510 1511 1513 1515 1517 1518 1520 1522 1524 1526 1528 1530 1532 1534 1536 1538 1541 1543 1545 1547 1549 1551 1553 1555 1557 1559 1560
1502 1502 1502 1502 1502 1502 1501 1501 1500 1499 1499 1500 1500 1500 1500 1500 1501 1502 1502 1504 1505 1506 1508 1509 1511 1513 1515 1516 1518 1520 1522 1524 1526 1528 1530 1533 1534 1537 1539 1541 1544 1546 1548 1550 1552 1554 1556 1558 1560
1502 1502 1501 1501 1501 1500 1500 1499 1499 1496 1497 1497 1498 1498 1498 1499 1499 1500 1501 1501 1502 1504 1505 1507 1509 1511 1512 1514 1516 1518 1520 1522 1524 1526 1528 1531 1533 1535 1537 1540 1542 1545 1547 1549 1551 1553 1555 1557 1559
1501 1502 1501 1500 1500 1500 1500 1499 1497 1495 1496 1496 1496 1496 1497 1497 1498 1497 1498 1499 1500 1501 1503 1504 1506 1508 1510 1512 1514 1515 1517 1519 1521 1524 1526 1529 1531 1534 1536 1538 1540 1543 1545 1547 1549 1552 1554 1556 1558
1502 1504 1505 1500 1499 1499 1502 1499 1493 1493 1494 1493 1494 1494 1495 1495 1495 1495 1496 1496 1497 1498 1500 1501 1503 1505 1507 1509 1511 1512 1515 1517 1519 1521 1524 1526 1529 1532 1534 1536 1539 1541 1543 1545 1547 1550 1552 1554 1556
1506 1508 1506 1502 1499 1499 1500 1497 1491 1492 1492 1492 1491 1492 1492 1492 1492 1492 1493 1493 1494 1496 1497 1498 1500 1502 1504 1506 1508 1510 1512 1514 1516 1518 1521 1524 1526 1529 1531 1534 1536 1539 1541 1543 1546 1548 1550 1552 1554
1508 1508 1506 1504 1500 1500 1500 1496 1490 1490 1490 1489 1489 1489 1489 1489 1489 1489 1490 1491 1492 1493 1494 1495 1497 1499 1501 1503 1505 1507 1509 1511 1513 1515 1518 1520 1523 1526 1529 1531 1534 1536 1539 1541 1543 1545 1548 1551 1553
1506 1507 1507 1503 1500 1500 1497 1494 1489 1488 1488 1487 1487 1487 1486 1486 1487 1487 1487 1488 1489 1490 1491 1492 1493 1495 1497 1499 1501 1503 1505 1507 1510 1512 1514 1517 1520 1523 1525 1528 1530 1533 1535 1538 1540 1543 1545 1548 1551
1507 1508 1507 1502 1499 1499 1497 1492 1487 1486 1486 1486 1486 1485 1484 1483 1483 1483 1484 1484 1485 1486 1487 1489 1490 1492 1494 1496 1498 1500 1502 1504 1506 1509 1511 1514 1516 1519 1522 1525 1527 1529 1532 1535 1537 1540 1542 1545 1548
1505 1508 1507 1505 1500 1498 1498 1491 1486 1485 1484 1484 1484 1483 1482 1482 1480 1480 1480 1481 1482 1483 1484 1485 1487 1488 1490 1493 1495 1497 1499 1501 1503 1505 1507 1510 1512 1515 1518 1521 1524 1526 1529 1531 1534 1537 1539 1541 1545
1505 1503 1503 1503 1505 1505 1502 1500 1486 1484 1484 1483 1482 1481 1480 1480 1479 1478 1478 1478 1478 1480 1481 1483 1484 1486 1487 1490 1492 1493 1495 1496 1499 1501 1504 1507 1509 1512 1514 1517 1520 1523 1525 1527 1530 1533 1536 1538 1541
1505 1502 1503 1503 1506 1508 1505 1506 1490 1486 1484 1482 1481 1480 1479 1478 1478 1477 1476 1476 1476 1477 1478 1480 1481 1483 1484 1487 1488 1490 1492 1494 1496 1499 1501 1503 1506 1508 1511 1514 1516 1519 1522 1524 1527 1529 1533 1535 1538
1504 1503 1503 1505 1507 1509 1504 1506 1494 1489 1485 1483 1480 1479 1478 1477 1476 1475 1474 1473 1473 1474 1475 1476 1477 1479 1480 1482 1484 1487 1488 1490 1493 1495 1497 1500 1501 1504 1507 1510 1513 1516 1518 1520 1523 1526 1529 1532 1535
1506 1509 1512 1510 1511 1505 1501 1501 1494 1486 1483 1482 1481 1479 1477 1476 1474 1472 1471 1470 1470 1470 1471 1473 1474 1475 1477 1478 1480 1483 1485 1487 1489 1491 1494 1496 1498 1500 1503 1507 1509 1512 1514 1517 1519 1522 1525 1528 1531
1510 1512 1516 1515 1512 1508 1503 1501 1491 1484 1482 1481 1479 1478 1476 1474 1473 1471 1469 1468 1468 1468 1468 1469 1470 1471 1473 1475 1477 1479 1481 1483 1485 1488 1490 1492 1494 1497 1500 1503 1505 1508 1511 1513 1516 1518 1521 1524 1527
1511 1514 1515 1520 1520 1519 1507 1501 1490 1482 1480 1479 1478 1476 1475 1473 1471 1469 1467 1466 1466 1466 1466 1467 1468 1469 1470 1471 1473 1475 1477 1479 1481 1484 1486 1489 1490 1493 1496 1499 1502 1504 1507 1509 1512 1514 1517 1520 1523
1512 1515 1519 1518 1517 1512 1505 1503 1496 1486 1482 1481 1479 1476 1474 1472 1469 1467 1466 1466 1465 1464 1464 1465 1465 1465 1466 1468 1470 1471 1472 1474 1477 1480 1482 1484 1487 1489 1492 1494 1497 1499 1502 1505 1507 1511 1513 1515 1519
1516 1517 1518 1519 1517 1516 1511 1498 1489 1487 1484 1483 1480 1477 1474 1471 1469 1467 1465 1464 1463 1462 1462 1462 1463 1463 1463 1464 1466 1467 1469 1471 1473 1475 1478 1480 1482 1484 1487 1489 1492 1494 1497 1500 1503 1505 1508 1511 1514
1516 1517 1519 1518 1518 1521 1517 1502 1485 1485 1483 1482 1479 1476 1473 1471 1469 1467 1464 1463 1462 1461 1460 1461 1461 1461 1461 1462 1463 1464 1465 1467 1469 1471 1473 1476 1478 1480 1483 1485 1487 1490 1493 1495 1498 1500 1503 1506 1508